Vertical_Velocity
-0 0 0 0 0 -0 -0 0 0 -2 -3 1 2 1 1 -1 -2 -0 -3 -2 3 0 -3 -3 -1 -1 -1 -1 -7 -2 3 3 1 3 -1 -2 -4 4
-4 -3 -3 -2 -1 -1 -1 -2 -0 1 -1 -1 0 -1 1 -2 -1 -4 -1 -1 -2 -1 2 0 -2 -2 -3 -3 -0 0 -2 -6 -6 -6 -2 -2 -4 -4
-2 -3 -3 -3 -2 -2 -2 -2 -1 -0 -5 0 -2 0 -2 -2 -1 0 -1 -3 -1 -1 -1 1 2 2 2 3 2 0 1 3 4 3 1 -3 -1 -5
0 -1 0 -2 -1 -1 -0 -0 0 2 -3 -6 3 0 1 -1 -2 -1 -0 4 -1 -2 -2 -4 -5 1 3 3 3 5 2 -2 -3 -4 -4 -2 -1 -2
-1 -1 1 2 1 3 2 1 1 3 3 -3 -6 0 0 1 -4 -3 -1 -1 2 1 2 1 -1 -4 -6 -3 -4 -2 -1 0 1 0 0 -2 -0 1
-0 0 1 -2 -0 -1 1 1 -1 -1 1 -0 -3 -3 0 2 -3 -3 -4 -3 -4 -1 1 -1 -0 1 3 -0 -4 -5 -4 -5 -4 -4 -2 2 2 1
1 -1 1 1 -1 -1 -1 2 1 -0 1 1 -3 -1 1 -2 -1 -3 -4 -2 -5 -2 -2 -3 -4 -2 -1 -1 -1 -1 -1 -2 -2 -3 -4 -6 -5 -2
1 -1 -1 0 1 4 2 1 0 -2 0 1 -2 -1 -1 0 -0 -3 -3 -3 -11 -5 -4 -6 3 -3 -2 -0 -1 -0 -1 -0 -1 -3 -2 -1 -0 -3
2 3 2 0 0 -1 -2 -2 -1 2 0 1 -1 4 -2 2 1 -1 0 -0 -1 -3 4 -11 2 -6 -2 -7 -4 -3 -1 1 1 -0 1 -3 -2 -4
2 6 0 2 3 1 1 0 0 1 1 -1 1 -1 -1 -0 1 1 3 -2 -4 -7 3 -11 3 -3 -6 -6 -3 -1 -2 -3 -4 -6 -6 -5 -5 -4
-2 0 -0 0 -3 1 -3 -3 -2 -2 0 -0 2 0 1 3 6 7 -3 1 -5 -5 -3 4 -7 -11 -5 -9 -7 -6 -4 -2 -1 -3 -5 -3 -3 -6
5 -1 0 -1 1 3 -0 1 -4 -1 -1 -1 -2 -0 3 1 4 4 1 1 3 -6 -8 0 0 -4 -10 -10 -5 -5 -2 -2 -2 -2 -2 -3 -4 -1
-2 1 1 1 1 3 1 0 -1 2 -3 -1 -0 -1 0 0 1 3 3 4 2 -3 1 8 -1 3 3 -8 -5 -1 -5 -7 -4 -6 -4 -2 -1 4
-0 1 1 2 3 1 1 0 -1 2 2 2 0 -1 -1 0 2 1 -0 1 2 -1 -2 6 0 2 3 -2 -8 -0 0 -1 -4 -7 -4 -3 -1 1
-5 2 0 2 1 -2 4 -0 0 -0 -1 0 -0 -1 2 1 1 -1 1 2 -3 -4 -0 4 1 -0 0 -5 -6 -6 -9 -0 -5 -5 -4 -3 -4 0
3 -0 1 1 2 -0 -1 -1 0 2 1 -0 -1 -0 -0 -1 -2 -0 -3 -1 -5 -7 4 2 2 6 -0 -3 4 -8 0 -7 6 0 -4 -4 -1 1
4 -1 3 1 0 1 -2 -1 3 1 -1 1 0 0 -1 -0 -3 0 -1 -5 -3 -3 -9 -4 2 5 4 -0 -3 -2 -5 -3 2 -3 0 -9 0 -3
1 2 0 0 -0 1 -3 -1 -1 1 1 2 2 1 -2 -1 -2 -1 1 -1 -3 -3 -3 -0 -2 -3 -4 -16 6 -6 -3 -5 2 -1 1 -9 -13 5
-1 -0 -3 1 1 0 -1 1 -1 0 3 2 0 -1 -0 -1 1 -0 1 2 -4 -1 -6 1 -1 6 2 -7 -1 6 -6 0 -1 -4 6 9 -6 -0
2 -2 -0 1 1 -2 -1 -1 0 0 1 -0 -1 -1 -0 -0 -1 -1 -2 -0 1 -3 -7 1 1 2 8 -3 3 -7 8 -7 4 -3 -6 3 -3 -3
1 -2 1 2 3 -2 -0 1 1 0 0 -1 -1 -0 1 2 -0 -0 -1 2 3 4 -1 -5 1 9 6 12 3 -11 -8 8 6 3 -6 1 -4 -3
1 -1 2 0 1 -1 1 1 -0 0 0 -1 -0 0 1 3 -1 -1 1 -1 -3 1 -2 -4 -2 1 -2 5 -6 -5 -9 -4 6 5 3 10 10 -11
1 1 2 2 -2 -0 -0 -0 0 -0 -0 -0 0 1 2 -1 1 -0 -1 -1 0 -2 1 -7 -4 2 -3 3 4 -2 -2 -4 -1 -9 -9 9 -2 -1
Height
1501 1500 1499 1498 1497 1495 1494 1493 1491 1488 1484 1483 1482 1480 1479 1477 1475 1472 1469 1467 1464 1462 1460 1458 1455 1453 1452 1450 1451 1451 1449 1447 1446 1445 1443 1442 1443 1441
1497 1497 1496 1495 1493 1491 1490 1489 1488 1486 1482 1478 1477 1476 1474 1472 1470 1468 1465 1463 1461 1459 1456 1455 1453 1452 1451 1450 1449 1446 1443 1442 1443 1442 1440 1437 1437 1434
1493 1491 1490 1489 1487 1486 1484 1483 1482 1481 1478 1474 1473 1471 1469 1467 1465 1463 1461 1459 1457 1455 1454 1452 1450 1448 1446 1446 1443 1441 1439 1438 1437 1435 1432 1433 1432 1429
1488 1487 1485 1483 1482 1481 1479 1477 1476 1475 1473 1469 1468 1467 1465 1462 1460 1458 1456 1454 1451 1450 1449 1447 1445 1444 1442 1439 1437 1434 1432 1430 1429 1428 1428 1428 1427 1425
1483 1481 1480 1478 1477 1476 1474 1472 1471 1470 1467 1464 1461 1460 1459 1457 1455 1453 1451 1449 1447 1445 1443 1441 1439 1438 1436 1434 1432 1430 1428 1426 1424 1424 1423 1422 1421 1419
1477 1476 1474 1472 1471 1470 1468 1467 1465 1463 1462 1459 1456 1454 1453 1451 1450 1448 1445 1443 1441 1439 1438 1435 1434 1433 1431 1428 1426 1424 1422 1420 1418 1417 1416 1414 1413 1411
1473 1471 1470 1468 1466 1465 1463 1462 1461 1459 1457 1453 1451 1448 1446 1445 1445 1442 1440 1437 1434 1433 1430 1429 1428 1426 1424 1423 1421 1419 1417 1415 1413 1411 1409 1408 1407 1405
1464 1463 1463 1462 1461 1459 1457 1456 1454 1452 1451 1449 1446 1443 1440 1439 1438 1437 1436 1433 1427 1426 1425 1422 1421 1418 1417 1416 1414 1413 1410 1408 1406 1405 1404 1403 1402 1399
1458 1456 1454 1452 1452 1452 1451 1451 1450 1448 1446 1446 1442 1439 1436 1435 1433 1431 1431 1429 1425 1423 1420 1414 1414 1411 1410 1409 1408 1405 1403 1401 1399 1398 1398 1396 1394 1392
1451 1450 1448 1446 1446 1444 1444 1442 1440 1440 1439 1438 1437 1433 1432 1431 1429 1427 1424 1422 1419 1418 1417 1408 1407 1404 1402 1402 1401 1398 1395 1393 1391 1390 1389 1387 1385 1382
1442 1442 1440 1438 1438 1436 1435 1435 1434 1432 1432 1431 1430 1427 1426 1426 1425 1421 1418 1417 1413 1411 1410 1406 1402 1397 1394 1391 1391 1391 1390 1387 1384 1381 1379 1377 1375 1373
1433 1433 1432 1431 1430 1429 1428 1427 1426 1425 1425 1423 1422 1421 1420 1418 1417 1415 1412 1410 1409 1406 1404 1402 1398 1396 1386 1382 1382 1382 1381 1379 1376 1373 1370 1367 1365 1362
1425 1424 1425 1424 1422 1421 1421 1420 1419 1420 1418 1416 1414 1413 1412 1411 1409 1407 1405 1403 1401 1399 1398 1396 1392 1390 1388 1378 1372 1371 1369 1367 1365 1363 1361 1359 1356 1354
1417 1416 1417 1416 1415 1414 1414 1413 1413 1413 1411 1409 1407 1405 1404 1403 1401 1399 1397 1396 1394 1391 1390 1389 1384 1383 1378 1371 1365 1362 1361 1360 1357 1353 1350 1348 1345 1344
1409 1409 1409 1408 1408 1407 1407 1406 1406 1404 1403 1401 1399 1397 1397 1395 1393 1391 1389 1387 1385 1383 1382 1380 1377 1375 1372 1366 1358 1355 1352 1349 1348 1344 1341 1337 1334 1332
1402 1401 1400 1400 1400 1400 1400 1399 1398 1397 1395 1393 1391 1390 1389 1387 1385 1383 1381 1378 1376 1374 1374 1372 1369 1367 1363 1359 1355 1347 1346 1343 1338 1336 1332 1325 1322 1321
1395 1394 1393 1393 1393 1392 1391 1391 1390 1389 1387 1386 1385 1383 1382 1380 1377 1376 1373 1371 1368 1365 1363 1362 1361 1358 1355 1351 1344 1341 1336 1332 1329 1326 1324 1315 1310 1309
1385 1384 1384 1385 1384 1384 1383 1383 1382 1381 1379 1379 1377 1375 1374 1372 1370 1368 1366 1364 1361 1358 1355 1353 1351 1348 1344 1340 1339 1330 1327 1322 1319 1316 1313 1307 1296 1298
1377 1376 1376 1377 1377 1376 1376 1375 1374 1373 1373 1371 1369 1367 1366 1364 1363 1360 1358 1356 1353 1351 1347 1345 1342 1340 1334 1327 1326 1325 1318 1313 1310 1305 1302 1297 1289 1283
1368 1368 1369 1370 1369 1369 1368 1368 1367 1366 1364 1362 1360 1359 1358 1357 1355 1353 1351 1349 1346 1343 1339 1337 1334 1330 1326 1319 1313 1310 1311 1305 1301 1294 1288 1284 1279 1274
1360 1361 1362 1362 1362 1362 1361 1360 1359 1358 1357 1354 1353 1352 1351 1350 1347 1346 1344 1342 1340 1337 1333 1329 1325 1323 1317 1312 1304 1298 1297 1296 1291 1285 1279 1275 1268 1263
1352 1352 1353 1353 1354 1354 1353 1353 1351 1350 1349 1347 1346 1345 1344 1343 1341 1339 1337 1334 1332 1328 1323 1319 1316 1313 1309 1304 1296 1290 1285 1282 1280 1276 1272 1268 1263 1254
1344 1345 1345 1346 1347 1346 1346 1345 1344 1343 1341 1340 1339 1338 1337 1335 1334 1332 1330 1327 1324 1320 1315 1310 1306 1303 1298 1294 1289 1282 1277 1271 1267 1262 1257 1256 1251 1247